WMT3L EPWR-LUKK

Flight info

Callsign WMT3L
Flight time N/A
Altitude 35000
Route MOFKE T714 MAPIK DCT KELEL DCT KEKED DCT SOMET DCT BUZZE DCT UNIRA
Aircraft A321/M-SDE3FGHIRWY/LB1

Departure

Time N/A
Airport Copernicus Wrocław Airport (EPWR)

Arrival

Time 2026-04-30 18:03
Airport Chişinău International Airport (LUKK)
Time Latitude Longitude Altitude Speed Heading
2026-04-30 17:39 47.18446 27.73147 12602 ft 345 kts 99°
2026-04-30 17:41 47.13193 27.98301 10329 ft 295 kts 110°
2026-04-30 17:42 47.11687 28.03737 9778 ft 285 kts 110°
2026-04-30 17:42 47.09482 28.11697 8814 ft 276 kts 109°
2026-04-30 17:43 47.08051 28.16854 8214 ft 270 kts 109°
2026-04-30 17:44 47.05973 28.24325 7344 ft 261 kts 109°
2026-04-30 17:44 47.03942 28.31597 6471 ft 254 kts 109°
2026-04-30 17:46 47.00127 28.43058 5035 ft 249 kts 118°
2026-04-30 17:47 46.96619 28.51323 4478 ft 226 kts 117°
2026-04-30 17:48 46.93320 28.59116 3952 ft 223 kts 117°
2026-04-30 17:48 46.92182 28.65326 3377 ft 192 kts 84°
2026-04-30 17:49 46.92393 28.71878 2930 ft 153 kts 83°
2026-04-30 17:50 46.92495 28.77977 2126 ft 149 kts 84°
2026-04-30 17:51 46.92573 28.82500 1529 ft 148 kts 84°
2026-04-30 17:52 46.92666 28.86986 917 ft 147 kts 84°
2026-04-30 17:53 46.92728 28.94316 1111 ft 150 kts 90°
2026-04-30 17:54 46.88922 28.99040 2375 ft 240 kts 172°
2026-04-30 17:55 46.83227 28.94626 2481 ft 244 kts 231°
2026-04-30 17:56 46.79925 28.86990 2435 ft 208 kts 292°
2026-04-30 17:57 46.82615 28.81535 2482 ft 224 kts 311°
2026-04-30 17:58 46.85119 28.76488 2281 ft 186 kts 310°
2026-04-30 17:59 46.88799 28.73727 2325 ft 167 kts 22°
2026-04-30 18:00 46.92357 28.76471 2253 ft 142 kts 73°
2026-04-30 18:00 46.92529 28.80850 1731 ft 145 kts 83°
2026-04-30 18:01 46.92587 28.83787 1359 ft 144 kts 84°
2026-04-30 18:02 46.92656 28.88202 741 ft 146 kts 85°
2026-04-30 18:02 46.92765 28.92452 344 ft 106 kts 87°
2026-04-30 18:03 46.92802 28.94259 297 ft 47 kts 89°
2026-04-30 18:04 46.92874 28.95110 279 ft 12 kts
2026-04-30 18:05 46.93039 28.94817 288 ft 11 kts 278°
2026-04-30 18:06 46.93104 28.94046 303 ft 25 kts 277°
2026-04-30 18:07 46.93377 28.93823 302 ft 16 kts 322°
2026-04-30 18:08 46.93364 28.93602 311 ft 4 kts 195°
2026-04-30 18:09 46.93362 28.93668 309 ft 0 kts 11°
2026-04-30 18:10 46.93362 28.93669 309 ft 0 kts 10°